パンスターズ彗星

C/2017 K1 ( PanSTARRS )

English version
Home page
Updated on October 8, 2017

---------------------------------------------------------------------

・ プロフィール

発見日 2017年5月21日
発見光度 20.3等
発見者 Pan-STARRS 1 telescope (Haleakala)

・ 写真集

・ 軌道要素

Epoch 2018 Mar. 23.0 TT = JDT 2458200.5
T 2018 Mar. 17.43648 TT                                 MPCW
q   7.2790658            (2000.0)            P               Q
z  +0.0000281      Peri.    4.40044     -0.74626718     -0.58718340
 +/-0.0001576      Node   225.65200     -0.62331953     +0.45116070
e   0.9997957      Incl.  153.99577     -0.23357669     +0.67206375
From 34 observations 2017 May 21-July 15, mean residual 0".4.

・ 光度変化

        m1 = 6.5 + 5 logΔ + 10.0 log r

---------------------------------------------------------------------

軌道要素はM.P.E.C. 2017-T14に掲載されたものです。
光度グラフはComet for Windowsで作成したものです。

---------------------------------------------------------------------

Copyright(C) Seiichi Yoshida (comet@aerith.net). All rights reserved.